Regional Weather Roundup
Issued by NWS

Home | Current Version | Previous Version | Text Only | Print | Product List | Glossary Off
Versions: 1 2 3 4 5 6 7 8 9 10 11 12 13 14 15 16 17 18 19 20 21 22 23 24 25 26 27 28 29 30 31 32 33 34 35 36 37 38 39 40 41 42 43 44 45 46 47 48 49 50

434
ASUS45 KSLC 050610
RWRUT

UTAH REGIONAL WEATHER ROUNDUP
NATIONAL WEATHER SERVICE SALT LAKE CITY UT
1200 AM MDT THU MAY 05 2016

UTZ001>011-023>025-050700-

NORTHERN UTAH

CITY           SKY/WX    TMP DP  RH WIND       PRES   REMARKS
BRIGHAM CITY   CLOUDY    59  41  51 CALM      29.96S
HILL AFB       CLOUDY    64  34  32 E15       29.98S
LOGAN          CLOUDY    54  44  69 CALM      29.99S
OGDEN          CLOUDY    63  36  36 S7        29.95F
PROVO AIRPORT  CLOUDY    66  34  30 SE12      29.99R
SALT LAKE CITY MOCLDY    65  39  38 S6        29.95S
VERNAL         CLOUDY    53  32  44 NW3       30.09S
WENDOVER       PTCLDY    64  39  39 CALM      29.95R
HEBER CITY     CLOUDY    54  32  43 CALM      30.05S

$$

UTZ012>022-026-027-050700-

SOUTHERN/CENTRAL UTAH

CITY           SKY/WX    TMP DP  RH WIND       PRES   REMARKS
BLANDING       CLEAR     55  27  34 NE12      30.20F
BRYCE CANYON   CLOUDY    44  33  65 W7        30.19S
CEDAR CITY     MOCLDY    57  32  38 SE8       30.03S
DELTA          MOCLDY    61  32  33 SE8       29.98S
HANKSVILLE     MOCLDY    59  34  38 CALM      30.04S
MILFORD        MOCLDY    54  31  41 S5        29.99R
MOAB/CYNLANDS  PTCLDY    65  29  25 CALM      30.03S
PRICE          MOCLDY    55  27  34 N10       30.11S
ST GEORGE      CLOUDY    68  37  32 E7        29.90R
KANAB          PTCLDY    54  37  54 NE5       30.06R

$$

REGIONAL REPORTS     COLORADO/ARIZONA

CITY           SKY/WX    TMP DP  RH WIND       PRES   REMARKS
CRAIG, CO      CLOUDY    41  34  76 CALM      30.18S
GRAND JUNCTION CLOUDY    57  33  40 SE9       30.08F
RIFLE          CLOUDY    51  33  50 E3        30.15R
MONTROSE       CLEAR     54  31  41 SE13      30.19R
CORTEZ         CLEAR     46  31  55 CALM      30.18S
PAGE, AZ       PTCLDY    73  25  16 SW8       29.97R
GRAND CANYON   PTCLDY    44  31  60 E3        30.15S
KINGMAN        MOCLDY    73  29  19 S12       29.91S
FLAGSTAFF      CLEAR     41  28  60 CALM      30.18S

$$

REGIONAL REPORTS    NEVADA/IDAHO/WYOMING

CITY           SKY/WX    TMP DP  RH WIND       PRES   REMARKS
LAS VEGAS, NV  MOCLDY    80  28  15 S6        29.75S
ELY            MOCLDY    47  29  49 S8        30.04S
ELKO           MOCLDY    57  39  51 N3        29.94R
POCATELLO, ID  CLOUDY    55  40  56 E3        29.98S
BURLEY         MOCLDY    56  42  59 CALM      29.91F
EVANSTON, WY   CLOUDY    54  25  32 SE7       30.16S
ROCK SPRINGS   CLOUDY    54  26  34 S6        30.16S
KEMMERER         N/A     50  30  46 N3        30.18S

$$




USA.gov is the U.S. government's official web portal to all federal, state and local government web resources and services.